Weather History for KHNR - November, 2012

Change the Weather History Date:

Thursday, November 22, 2012

  Actual Average Record
Temperature  
Mean Temperature 44 °F -  
Max Temperature 59 °F 44 °F 68 °F (1966)
Min Temperature 30 °F 24 °F 7 °F (1948)
Degree Days  
Heating Degree Days 20    
Moisture  
Dew Point 36 °F    
Average Humidity 68    
Maximum Humidity 93    
Minimum Humidity 34    
Precipitation  
Precipitation 0.00 in - - ()
Sea Level Pressure  
Sea Level Pressure 29.95 in    
Wind  
Wind Speed 12 mph (West)    
Max Wind Speed 31 mph    
Max Gust Speed 39 mph    
Visibility 10 miles    
Events      
Averages and records for this station are not official NWS values.
T = Trace of Precipitation, MM = Missing Value Source: NWS Daily Summary

Daily Weather History Graph

Daily Weather History Graph

Search for Another Location

Airport or City:

Trip Planner

Search our weather history database for the weather conditions in past years. The results will help you decide how hot, cold, wet, or windy it might be!

Date:

Astronomy

Nov. 22, 2012 Rise Set
Actual Time 7:19 AM CST 4:55 PM CST
Civil Twilight 6:48 AM CST 5:26 PM CST
Nautical Twilight 6:14 AM CST 6:00 PM CST
Astronomical Twilight 5:41 AM CST 6:33 PM CST
Moon 1:45 PM CST (11/22) 1:36 AM CST (11/22)
Length of Visible Light 10h 37m
Length of Day
9h 36m
Waxing Gibbous, 71% of the Moon is Illuminated
Nov 22
Waxing Gibbous
Nov 28
Full
Dec 6
Last Quarter
Dec 13
New
Dec 19
First Quarter

Hourly Weather History & Observations

Time (CST) Temp. Windchill Dew Point Humidity Pressure Visibility Wind Dir Wind Speed Gust Speed Precip Events Conditions
12:15 AM 53.6 °F - 39.2 °F 58% 29.86 in 10.0 mi South 12.7 mph 19.6 mph N/A   Clear
12:35 AM 53.6 °F - 39.2 °F 58% 29.85 in 10.0 mi South 11.5 mph - N/A   Clear
12:55 AM 51.8 °F - 39.2 °F 62% 29.84 in 10.0 mi South 11.5 mph 17.3 mph N/A   Clear
1:15 AM 51.8 °F - 39.2 °F 62% 29.83 in 10.0 mi South 12.7 mph - N/A   Clear
1:35 AM 51.8 °F - 39.2 °F 62% 29.83 in 10.0 mi South 10.4 mph - N/A   Clear
1:55 AM 51.8 °F - 39.2 °F 62% 29.82 in 10.0 mi South 9.2 mph - N/A   Clear
2:15 AM 50.0 °F - 39.2 °F 66% 29.82 in 10.0 mi South 9.2 mph - N/A   Clear
2:35 AM 50.0 °F - 39.2 °F 66% 29.82 in 10.0 mi South 8.1 mph - N/A   Clear
2:55 AM 48.2 °F - 39.2 °F 71% 29.82 in 10.0 mi South 8.1 mph - N/A   Clear
3:15 AM 48.2 °F - 39.2 °F 71% 29.81 in 10.0 mi SSW 5.8 mph - N/A   Clear
3:35 AM 48.2 °F - 39.2 °F 71% 29.80 in 10.0 mi South 5.8 mph - N/A   Clear
3:55 AM 50.0 °F - 39.2 °F 66% 29.79 in 10.0 mi South 8.1 mph - N/A   Clear
4:15 AM 48.2 °F - 39.2 °F 71% 29.79 in 10.0 mi South 8.1 mph - N/A   Clear
4:35 AM 48.2 °F - 39.2 °F 71% 29.79 in 10.0 mi South 6.9 mph - N/A   Clear
4:55 AM 46.4 °F 45.2 °F 39.2 °F 76% 29.79 in 10.0 mi SSW 3.5 mph - N/A   Clear
5:15 AM 46.4 °F 44.3 °F 39.2 °F 76% 29.78 in 10.0 mi South 4.6 mph - N/A   Clear
5:35 AM 46.4 °F 44.3 °F 39.2 °F 76% 29.78 in 10.0 mi South 4.6 mph - N/A   Clear
5:55 AM 44.6 °F 42.2 °F 39.2 °F 81% 29.78 in 10.0 mi South 4.6 mph - N/A   Clear
6:15 AM 44.6 °F 41.4 °F 39.2 °F 81% 29.78 in 10.0 mi South 5.8 mph - N/A   Clear
6:35 AM 46.4 °F 41.9 °F 41.0 °F 81% 29.77 in 10.0 mi South 9.2 mph - N/A   Clear
6:55 AM 44.6 °F 42.2 °F 39.2 °F 81% 29.78 in 10.0 mi SSW 4.6 mph - N/A   Clear
7:15 AM 44.6 °F 41.4 °F 41.0 °F 87% 29.79 in 10.0 mi South 5.8 mph - N/A   Clear
7:35 AM 42.8 °F 40.1 °F 39.2 °F 87% 29.79 in 10.0 mi SSW 4.6 mph - N/A   Clear
7:55 AM 44.6 °F 42.2 °F 41.0 °F 87% 29.79 in 10.0 mi SSW 4.6 mph - N/A   Clear
8:15 AM 42.8 °F 41.1 °F 39.2 °F 87% 29.79 in 10.0 mi SSW 3.5 mph - N/A   Clear
8:35 AM 44.6 °F 43.1 °F 42.8 °F 93% 29.80 in 10.0 mi SSW 3.5 mph - N/A   Clear
8:55 AM 46.4 °F 43.5 °F 42.8 °F 87% 29.80 in 10.0 mi SSW 5.8 mph - N/A   Clear
9:15 AM 51.8 °F - 44.6 °F 76% 29.80 in 10.0 mi SW 9.2 mph - N/A   Clear
9:35 AM 53.6 °F - 44.6 °F 72% 29.80 in 10.0 mi SW 12.7 mph - N/A   Clear
9:55 AM 55.4 °F - 42.8 °F 63% 29.81 in 10.0 mi WSW 11.5 mph - N/A   Clear
10:15 AM 55.4 °F - 39.2 °F 54% 29.81 in 10.0 mi West 15.0 mph - N/A   Clear
10:35 AM 57.2 °F - 35.6 °F 44% 29.82 in 10.0 mi West 13.8 mph 18.4 mph N/A   Clear
10:55 AM 57.2 °F - 33.8 °F 41% 29.82 in 10.0 mi West 10.4 mph - N/A   Clear
11:15 AM 59.0 °F - 33.8 °F 39% 29.83 in 10.0 mi West 11.5 mph - N/A   Clear
11:35 AM 59.0 °F - 30.2 °F 34% 29.83 in 10.0 mi WNW 17.3 mph - N/A   Clear
11:55 AM 59.0 °F - 32.0 °F 36% 29.84 in 10.0 mi WNW 23.0 mph 29.9 mph N/A   Clear
12:15 PM 59.0 °F - 33.8 °F 39% 29.85 in 10.0 mi WNW 24.2 mph 32.2 mph N/A   Clear
12:35 PM 59.0 °F - 33.8 °F 39% 29.86 in 10.0 mi NW 24.2 mph 35.7 mph N/A   Clear
12:55 PM 59.0 °F - 35.6 °F 42% 29.86 in 10.0 mi NW 28.8 mph 34.5 mph N/A   Clear
1:15 PM 59.0 °F - 35.6 °F 42% 29.88 in 10.0 mi WNW 31.1 mph 38.0 mph N/A   Clear
1:35 PM 57.2 °F - 35.6 °F 44% 29.90 in 10.0 mi NW 26.5 mph 39.1 mph N/A   Clear
1:55 PM 57.2 °F - 35.6 °F 44% 29.91 in 10.0 mi NW 24.2 mph 34.5 mph N/A   Clear
2:15 PM 55.4 °F - 33.8 °F 44% 29.93 in 10.0 mi NW 31.1 mph 36.8 mph N/A   Clear
2:35 PM 53.6 °F - 33.8 °F 47% 29.94 in 10.0 mi NW 26.5 mph 39.1 mph N/A   Clear
2:55 PM 53.6 °F - 33.8 °F 47% 29.97 in 10.0 mi NW 19.6 mph 32.2 mph N/A   Clear
3:15 PM 53.6 °F - 33.8 °F 47% 29.99 in 10.0 mi NW 27.6 mph 34.5 mph N/A   Clear
3:35 PM 51.8 °F - 33.8 °F 50% 30.01 in 10.0 mi NNW 26.5 mph 33.4 mph N/A   Clear
3:55 PM 51.8 °F - 33.8 °F 50% 30.02 in 10.0 mi NW 25.3 mph 29.9 mph N/A   Clear
4:15 PM 51.8 °F - 33.8 °F 50% 30.04 in 10.0 mi NNW 23.0 mph 31.1 mph N/A   Clear
4:35 PM 48.2 °F - 33.8 °F 58% 30.05 in 10.0 mi NNW 26.5 mph 35.7 mph N/A   Clear
4:55 PM 46.4 °F 38.3 °F 33.8 °F 62% 30.08 in 10.0 mi NNW 23.0 mph 32.2 mph N/A   Clear
5:15 PM 44.6 °F 36.4 °F 33.8 °F 66% 30.10 in 10.0 mi NW 20.7 mph 27.6 mph N/A   Clear
5:35 PM 44.6 °F 38.1 °F 33.8 °F 66% 30.12 in 10.0 mi NW 13.8 mph 20.7 mph N/A   Clear
5:55 PM 42.8 °F 37.0 °F 33.8 °F 70% 30.12 in 10.0 mi NW 10.4 mph - N/A   Clear
6:15 PM 41.0 °F 35.2 °F 33.8 °F 76% 30.14 in 10.0 mi WNW 9.2 mph - N/A   Clear
6:35 PM 39.2 °F 33.0 °F 33.8 °F 81% 30.15 in 10.0 mi NW 9.2 mph - N/A   Clear
6:55 PM 37.4 °F 32.1 °F 32.0 °F 81% 30.16 in 10.0 mi WNW 6.9 mph - N/A   Clear
7:15 PM 37.4 °F 32.8 °F 32.0 °F 81% 30.17 in 10.0 mi NW 5.8 mph - N/A   Clear
7:35 PM 35.6 °F 30.7 °F 32.0 °F 87% 30.18 in 10.0 mi WNW 5.8 mph - N/A   Clear
7:55 PM 33.8 °F 27.7 °F 32.0 °F 93% 30.18 in 10.0 mi NW 6.9 mph - N/A   Clear
8:15 PM 33.8 °F 26.4 °F 30.2 °F 87% 30.19 in 10.0 mi NW 9.2 mph - N/A   Clear
8:35 PM 33.8 °F 26.4 °F 30.2 °F 87% 30.20 in 10.0 mi NW 9.2 mph - N/A   Clear
8:55 PM 35.6 °F 28.6 °F 32.0 °F 87% 30.21 in 10.0 mi NW 9.2 mph - N/A   Clear
9:15 PM 33.8 °F 27.0 °F 30.2 °F 87% 30.22 in 10.0 mi NW 8.1 mph - N/A   Clear
9:35 PM 37.4 °F 30.8 °F 32.0 °F 81% 30.22 in 10.0 mi NW 9.2 mph - N/A   Clear
9:55 PM 35.6 °F 29.2 °F 30.2 °F 81% 30.22 in 10.0 mi NW 8.1 mph - N/A   Clear
10:15 PM 33.8 °F 30.8 °F 30.2 °F 87% 30.21 in 10.0 mi WNW 3.5 mph - N/A   Clear
10:35 PM 30.2 °F 24.3 °F 28.4 °F 93% 30.22 in 10.0 mi WNW 5.8 mph - N/A   Clear
10:55 PM 30.2 °F 22.6 °F 28.4 °F 93% 30.23 in 10.0 mi NW 8.1 mph - N/A   Clear
11:15 PM 32.0 °F 24.2 °F 28.4 °F 87% 30.24 in 10.0 mi NW 9.2 mph - N/A   Clear
11:35 PM 33.8 °F 26.4 °F 28.4 °F 81% 30.23 in 10.0 mi NW 9.2 mph - N/A   Clear
11:55 PM 33.8 °F 23.9 °F 28.4 °F 81% 30.24 in 10.0 mi NW 15.0 mph - N/A   Scattered Clouds